User: anonymous   Login
Location: Caltech
(34.1382°N, 118.1253°W)
Time: 01:32:36
(UTC-07:00)
Language:

Iridium 59 - Orbit

View from above orbital plane
View from above orbital plane
View from above satellite
View from above satellite

Ground track
Ground track

The orbit data is extracted from the following two-line orbital elements,

1 25275U 98019D   16270.45120913  .00000153  00000-0  47505-4 0  9993
2 25275  86.3979  37.6192 0002032  98.4753 261.6673 14.34216492968264
Epoch (UTC): 26 September 2016 10:49:44
Eccentricity: 0.0002032
inclination: 86.3979°
perigee height: 776 km
apogee height: 779 km
right ascension of ascending node: 37.6192°
argument of perigee: 98.4753°
revolutions per day: 14.34216492
mean anomaly at epoch: 261.6673°
orbit number at epoch: 96826

The dashed part of the orbit path shows where the satellite is in the earth's shadow,  

DLR